Weather in Kačerginės

Lithuania     54°55′58″N   23°42′43″E
temp.,
°C
wind,
m/s
gust,
m/s
humid.,
%
clouds,
%
prec.,
mm/h
press.,
hPa
HPBL,
m
28 july, wed
wed2800:00+19wsw349443 1.1 101172
03:00+18wsw34965 1.1 101184
06:00+16w239636 0.0 101151
09:00+21wsw238251 0.0 1012307
12:00+26wsw335754 0.0 10111090
15:00+28wsw564662 0.0 10102000
18:00+27w47465 0.0 10101992
21:00+23ssw336892 0.0 100923
29 july, thu
thu2900:00+19sw4578100 0.2 101072
03:00+19wsw3589100 0.4 1009122
06:00+18sw3897100 0.2 1009290
09:00+19w369236 0.2 1009375
12:00+24w56560 0.0 10091357
15:00+27wsw5745100 0.0 10072365
18:00+23wnw586198 0.0 10081034
21:00+19wsw347596 0.0 100851
30 july, fri
fri3000:00+16wnw3787100 0.1 1009146
03:00+15sw33915 0.1 100931
06:00+14sw369428 0.1 1008115
09:00+19wsw6116512 0.3 1007675
12:00+21wsw7134789 0.0 10071632
15:00+22wsw71245100 0.0 10062260
18:00+21sw711501 0.0 10051438
21:00+20wsw5105361 0.0 1005527
31 july, sat
sat3100:00+14wsw3774100 0.0 1006111
03:00+14sw513720 0.0 1006306
06:00+13sw388128 0.0 1006158
09:00+19sw486098 0.0 1006424
12:00+23sw5645100 0.0 10051069
15:00+24ssw7952100 0.0 10051347
18:00+19s41084100 0.4 1004396
21:00+18ssw3388100 1.1 100352
1 august, sun
sun100:00+15w34928 0.1 100574
03:00+14sw410920 0.1 1005184
06:00+12sw412920 0.0 1005262
09:00+17wsw610755 0.0 1006603
12:00+22wsw6856100 0.0 10071588
15:00+21w4761100 0.1 10081161
18:00+23wnw3550100 0.0 10071411
21:00+19n2268100 0.0 100727